Back to catalog

SL-8 R/B

AliveLEO
NORAD 10938·ROCKET BODY·🇷🇺 Russia

Launched Jun 7, 1978 from Plesetsk Cosmodrome

Loading…

Next Passes (next 24 hours)

TLE

FreshSource: Space-Track

Epoch: Sep 14, 2026, 11:24 UTC

1 10938U 78056J   26257.47522619  .00000009  00000-0  21701-3 0  9998
2 10938  74.0245 338.2389 0133169 358.3872  13.1165 12.21540953152546

Track SL-8 R/B in real time with AllMySat

Download on the App Store